Weather History for Jackson, KY

Change the Weather History Date:

Friday, February 7, 2014

  Actual Average Record
Temperature  
Mean Temperature 24 °F 37 °F  
Max Temperature 27 °F 46 °F 66 °F (2009)
Min Temperature 20 °F 28 °F 8 °F (1988)
Degree Days  
Heating Degree Days 41 28  
Month to date heating degree days 217 200  
Since 1 July heating degree days 3001 2766  
Cooling Degree Days 0 0  
Month to date cooling degree days 0 0  
Year to date cooling degree days 0 0  
Moisture  
Dew Point 17 °F    
Average Humidity 76    
Maximum Humidity 84    
Minimum Humidity 68    
Precipitation  
Precipitation T in 0.14 in 0.31 in (1996)
Month to date precipitation 2.16 0.94  
Year to date precipitation 5.31 4.55  
Snow  
Snow T in 0.30 in - ()
Month to date snowfall 1.3 2.0  
Since 1 July snowfall 19.6 14.6  
Snow Depth 0.00 in    
Sea Level Pressure  
Sea Level Pressure 30.38 in    
Wind  
Wind Speed 3 mph (NW)    
Max Wind Speed 8 mph    
Max Gust Speed 10 mph    
Visibility 9 miles    
Events Snow    
T = Trace of Precipitation, MM = Missing Value Source: NWS Daily Summary

Daily Weather History Graph

Daily Weather History Graph

Search for Another Location

Airport:

Trip Planner

Search our weather history database for the weather conditions in past years. The results will help you decide how hot, cold, wet, or windy it might be!

Date:

Astronomy

Feb. 07, 2014 Rise Set
Actual Time 7:31 AM EST 6:03 PM EST
Civil Twilight 7:04 AM EST 6:31 PM EST
Nautical Twilight 6:33 AM EST 7:02 PM EST
Astronomical Twilight 6:02 AM EST 7:32 PM EST
Moon 12:15 PM EST (2/7) 1:45 AM EST (2/7)
Length of Visible Light 11h 27m
Length of Day
10h 32m
First Quarter, 59% of the Moon is Illuminated
Feb 7
First Quarter
Feb 14
Full
Feb 22
Last Quarter
Mar 1
New
Mar 8
First Quarter

Hourly Weather History & Observations

Time (EST) Temp. Windchill Dew Point Humidity Pressure Visibility Wind Dir Wind Speed Gust Speed Precip Events Conditions
12:46 AM 23.0 °F - 17.1 °F 78% 30.31 in 10.0 mi Calm Calm - N/A   Overcast
12:53 AM 23.0 °F 17.0 °F 17.1 °F 78% 30.37 in 10.0 mi NW 4.6 mph - N/A   Overcast
1:53 AM 23.0 °F 18.4 °F 17.1 °F 78% 30.36 in 10.0 mi NW 3.5 mph - N/A   Overcast
2:53 AM 21.9 °F 17.2 °F 17.1 °F 82% 30.38 in 10.0 mi NW 3.5 mph - N/A   Overcast
3:53 AM 21.9 °F - 16.0 °F 78% 30.38 in 10.0 mi Calm Calm - N/A   Overcast
4:53 AM 21.9 °F 14.5 °F 16.0 °F 78% 30.39 in 10.0 mi West 5.8 mph - N/A   Overcast
5:53 AM 21.0 °F - 17.1 °F 85% 30.38 in 7.0 mi Calm Calm - N/A   Overcast
6:53 AM 21.0 °F 16.2 °F 16.0 °F 81% 30.38 in 9.0 mi WNW 3.5 mph - N/A   Overcast
7:51 AM 21.2 °F - 15.8 °F 80% 30.33 in 9.0 mi Calm Calm - N/A   Overcast
7:53 AM 21.0 °F - 16.0 °F 81% 30.38 in 9.0 mi Calm Calm - N/A   Overcast
8:53 AM 21.0 °F 14.6 °F 16.0 °F 81% 30.42 in 4.0 mi NW 4.6 mph - 0.00 in Snow Light Snow
9:08 AM 21.0 °F - 17.1 °F 85% 30.37 in 2.5 mi Calm Calm - 0.00 in   Overcast
9:23 AM 21.0 °F 16.2 °F 16.0 °F 81% 30.36 in 2.5 mi Variable 3.5 mph - 0.00 in Snow Light Snow
9:43 AM 21.9 °F - 17.1 °F 82% 30.36 in 3.0 mi Calm Calm - 0.00 in   Haze
9:53 AM 21.9 °F - 16.0 °F 78% 30.42 in 4.0 mi Calm Calm - 0.00 in   Haze
10:53 AM 23.0 °F 18.4 °F 17.1 °F 78% 30.44 in 7.0 mi WNW 3.5 mph - N/A   Overcast
11:17 AM 23.0 °F - 17.1 °F 78% 30.39 in 10.0 mi Calm Calm - N/A   Overcast
11:51 AM 24.8 °F 19.1 °F 17.6 °F 74% 30.38 in 10.0 mi Variable 4.6 mph - N/A   Overcast
11:53 AM 24.1 °F 19.7 °F 18.0 °F 77% 30.43 in 10.0 mi West 3.5 mph - N/A   Overcast
12:06 PM 24.1 °F 19.7 °F 18.0 °F 77% 30.38 in 10.0 mi WNW 3.5 mph - N/A   Overcast
12:16 PM 25.0 °F - 19.0 °F 78% 30.39 in 10.0 mi Calm Calm - N/A   Overcast
12:36 PM 25.0 °F - 19.0 °F 78% 30.37 in 10.0 mi Calm Calm - N/A   Overcast
12:53 PM 25.0 °F 20.7 °F 18.0 °F 75% 30.41 in 10.0 mi Variable 3.5 mph - N/A   Overcast
1:17 PM 24.1 °F - 17.1 °F 75% 30.35 in 10.0 mi Calm Calm - N/A   Overcast
1:53 PM 25.0 °F 19.3 °F 17.1 °F 72% 30.40 in 10.0 mi WNW 4.6 mph - N/A   Overcast
2:53 PM 25.0 °F 20.7 °F 16.0 °F 69% 30.39 in 10.0 mi Variable 3.5 mph - N/A   Overcast
3:53 PM 26.1 °F - 17.1 °F 69% 30.38 in 10.0 mi Calm Calm - N/A   Overcast
4:53 PM 25.0 °F 19.3 °F 17.1 °F 72% 30.39 in 10.0 mi NW 4.6 mph - N/A   Overcast
5:53 PM 24.1 °F - 16.0 °F 71% 30.39 in 10.0 mi Calm Calm - N/A   Overcast
6:53 PM 23.0 °F - 15.1 °F 72% 30.39 in 10.0 mi Calm Calm - N/A   Mostly Cloudy
7:05 PM 21.9 °F - 15.1 °F 75% 30.33 in 10.0 mi Calm Calm - N/A   Scattered Clouds
7:53 PM 21.0 °F 16.2 °F 15.1 °F 78% 30.38 in 10.0 mi NNE 3.5 mph - N/A   Clear
8:53 PM 21.0 °F 16.2 °F 15.1 °F 78% 30.36 in 10.0 mi NE 3.5 mph - N/A   Clear
9:53 PM 19.9 °F 14.9 °F 14.0 °F 78% 30.35 in 10.0 mi NE 3.5 mph - N/A   Clear
10:53 PM 19.9 °F 13.4 °F 14.0 °F 78% 30.34 in 10.0 mi NE 4.6 mph - N/A   Clear
11:53 PM 19.9 °F 13.4 °F 14.0 °F 78% 30.32 in 10.0 mi NNE 4.6 mph - N/A   Clear